星链-2154 (STARLINK-2154 )

导读

STARLINK-2154是美国太空探索技术公司(SpaceX)星链(Starlink)计划中的卫星,于2021年3月4日发射升空。星链计划旨在搭建全球卫星互联网,提供全天候、无缝衔接的全球高速网络服务,该卫星服役至今,为全球地面、偏远地区等提供网络通信支持,进一步完善了星链星座的组网布局。

Basic Information
目录编号:
47741
目录名称:
STARLINK-2154
国际标识:
2021-017V
轨道中心:
EARTH
卫星名称:
星链-2154
卫星全名:
星链-2154 (STARLINK-2154 )
卫星状态:
已陨落 最后检测时间 2024-05-15
发射日期:
2021-03-04 UTC
国别 :
美国 (US)
星等 :
--
Orbit Information
数据来源 国际轨道数据
星历时间: 2024-05-15T22:48:02+0800
轨道信息已过期804天
半长轴: 6550.764km
偏心率: 0.0009822
轨道倾角: 53.022°
近地点辐角 354.023°
升交点赤经 285.152°
平近点角 80.340°
近地点: 166.194km
远地点: 179.064km
周期: 87.942分钟
每日圈数: 16.374379
Detailed Information
固有亮度:
5
最大亮度:
2.5
卫星平台:
Starlink V1.0
覆盖范围:
全球
运营商:
太空探索技术公司
运营商所在国:
美国
制造商(研发单位):
太空探索技术公司
制造商所在国:
美国
使用方式:
暂无
Satellite Introduction
星链(Starlink)计划是由太空探索技术公司(SpaceX)提出的一个巨型低轨卫星互联网星座项目,计划在2019年至2024年间在太空搭建由约1.2万颗卫星组成的“星链”网络,其中1584颗将部署在地球上空550千米处的近地轨道,并从2020年开始工作。该卫星已陨落。